TimePST,TemperatureF,Dew PointF,Humidity,Sea Level PressureIn,VisibilityMPH,Wind Direction,Wind SpeedMPH,Gust SpeedMPH,PrecipitationIn,Events,Conditions,WindDirDegrees,DateUTC
12:53 AM,45.0,39.0,80,30.30,10.0,East,6.9,-,0.02,Rain,Light Rain,100,2013-02-28 08:53:00
1:53 AM,45.0,37.9,76,30.27,10.0,ESE,10.4,-,0.00,,Overcast,110,2013-02-28 09:53:00
2:53 AM,46.9,37.9,71,30.28,10.0,SE,4.6,-,0.00,Rain,Light Rain,130,2013-02-28 10:53:00
4:53 AM,44.1,39.0,82,30.27,10.0,East,5.8,-,0.00,Rain,Light Rain,90,2013-02-28 12:53:00
6:53 AM,46.9,37.0,68,30.28,10.0,Calm,Calm,-,0.00,,Overcast,0,2013-02-28 14:53:00
7:53 AM,45.0,39.9,82,30.29,10.0,East,8.1,-,0.00,Rain,Light Rain,80,2013-02-28 15:53:00
8:53 AM,46.9,42.1,83,30.31,7.0,South,3.5,-,0.04,Rain,Light Rain,170,2013-02-28 16:53:00
9:53 AM,48.0,42.1,80,30.32,5.0,SSE,9.2,-,0.02,Rain,Rain,160,2013-02-28 17:53:00
10:53 AM,48.9,43.0,80,30.31,7.0,SSE,9.2,-,0.04,Rain,Light Rain,160,2013-02-28 18:53:00
11:53 AM,50.0,44.1,80,30.32,5.0,South,9.2,-,0.04,Rain,Light Rain,170,2013-02-28 19:53:00
12:53 PM,50.0,43.0,77,30.32,10.0,South,11.5,-,0.02,Rain,Light Rain,170,2013-02-28 20:53:00
1:53 PM,50.0,44.1,80,30.31,6.0,South,6.9,-,0.05,Rain,Light Rain,170,2013-02-28 21:53:00
2:53 PM,51.1,45.0,80,30.32,6.0,South,6.9,-,0.03,Rain,Light Rain,190,2013-02-28 22:53:00
3:53 PM,51.1,45.0,80,30.33,7.0,South,10.4,-,0.01,Rain,Light Rain,170,2013-02-28 23:53:00
4:53 PM,52.0,46.0,80,30.33,10.0,South,10.4,-,0.02,Rain,Light Rain,180,2013-03-01 00:53:00
5:53 PM,51.1,46.0,83,30.35,10.0,South,4.6,-,0.03,Rain,Light Rain,170,2013-03-01 01:53:00
6:53 PM,51.1,46.9,86,30.36,10.0,SSE,5.8,-,0.00,Rain,Light Rain,160,2013-03-01 02:53:00
7:53 PM,52.0,46.0,80,30.35,10.0,South,10.4,-,0.00,,Mostly Cloudy,170,2013-03-01 03:53:00
8:53 PM,52.0,46.0,80,30.36,10.0,South,8.1,-,N/A,,Overcast,190,2013-03-01 04:53:00
9:53 PM,52.0,46.0,80,30.38,10.0,South,8.1,-,N/A,,Overcast,190,2013-03-01 05:53:00
10:53 PM,52.0,46.0,80,30.37,10.0,South,6.9,-,N/A,,Overcast,180,2013-03-01 06:53:00
11:53 PM,54.0,45.0,72,30.39,10.0,SSW,12.7,-,0.01,,Overcast,200,2013-03-01 07:53:00